Find Starlink 30215

NORAD ID: 57445 Int'l Des: 2023-105 Owner: SPXS Country: US Constellation: starlink operational
LEOCIRCULAR

現在のビュー

3D地球を読み込み中...

About Starlink 30215

Starlink 30215 (NORAD 57445) is a starlink constellation satellite (v2 mini) launched Jul 24, 2023 by SPXS of US. It operates in LEO, CIRCULAR orbit with a mass of 730.00 kg.

Starlink 30215について

説明を読み込み中...

次回通過

Passes for default location (London). Set your location on the main map for personalized predictions.

高度履歴

Loading altitude history...

軌道要素

1 57445U 23105R 26170.00316911 -.00000174 00000-0 31990-5 0 9993
2 57445 43.0020 47.9212 0001160 270.4430 89.6289 15.27574407160910
Epoch: Jun 19, 2026 • Age: 32 hours

現在のステータス

高度 483.6 km
速度 7.63 km/s
衛星直下点 -4.71°S, 167.32°W
打ち上げ日 Jul 24, 2023
運用期間 2.9 years
タイプ internet

技術仕様

分類 Payload
質量 730.00 kg
乾燥質量 700.00 kg
総質量 730.00 kg
長さ 0.30 m
直径 4.10 m
スパン 29.00 m
形状 Box + pan
製造者 SPXS
バスタイプ Starlink V2M
フェーズステータス In Orbit
所有者/国 SPXS/US

Most Searched